[[{"header":{"parameterUnit":"m.s-1","parameterCategory":1,"la1":30.2991,"la2":30.254,"lo1":-89.0895,"lo2":-89.0444,"dy":0.0017,"dx":0.0017,"nx":28,"ny":28,"refTime":"2024-10-12T09:00:00:Z","depth":0,"parameterNumber":2,"parameterNumberName":"U-component_of_WINDS"},"data":[0,0,0,0,0,0,0,0,0,0,0,0,0,0,0,0,0,0,0,0,0,0,0,0,0,0,0,0,0,0,0,0,0,0,0,0,0,0,0,0,0,0,0,0,0,0,0,0,0,0,0,0,0,0,0,0,0,0,-0.9566,-0.9566,0,-0.9582,-0.9582,-0.9582,-0.951,-0.9508,-0.9505,-0.9503,-0.9521,-0.9524,-0.9526,0,0,0,0,0,0,0,0,0,0,0,0,0,-0.9476,-0.9478,-0.9566,-0.9566,-0.9566,-0.9582,-0.9582,-0.9582,-0.951,-0.9508,-0.9505,-0.9503,-0.9521,-0.9524,-0.9526,0,0,0,0,0,0,0,0,0,0,0,0,0,-0.9506,-0.9478,-0.9566,-0.9532,-0.9529,-0.9582,-0.9582,-0.9582,-0.9511,-0.9507,-0.9504,-0.9501,-0.952,-0.9523,-0.9527,-0.9613,0,0,-0.9538,-0.954,0,0,0,0,0,0,0,0,-0.9504,-0.9509,-0.9537,-0.9534,-0.9531,-0.954,-0.9557,-0.9592,-0.9511,-0.9518,-0.9503,-0.95,-0.953,-0.9533,-0.9543,-0.9614,-0.9614,-0.9538,-0.9541,-0.9542,-0.9543,0,0,0,0,0,0,0,-0.9502,-0.9508,-0.9572,-0.9537,-0.9534,-0.9517,-0.9518,-0.9563,-0.9542,-0.9517,-0.9512,-0.9515,-0.9528,-0.954,-0.9543,-0.9615,-0.9538,-0.9542,-0.9544,-0.9545,-0.9759,-0.9762,0,0,0,0,0,0,-0.9504,-0.9507,-0.9571,-0.9572,-0.951,-0.9521,-0.9522,-0.9541,-0.9541,-0.9538,-0.9517,-0.9511,-0.9535,-0.9539,-0.9543,-0.9646,-0.9542,-0.9546,-0.9548,-0.9756,-0.976,-0.9764,0,0,0,0,0,0,-0.9502,-0.9511,-0.9571,-0.9538,-0.9545,-0.9526,-0.9548,-0.9543,-0.9554,-0.9541,-0.9537,-0.9533,-0.9533,-0.9538,-0.9596,-0.9645,-0.9547,-0.9551,-0.9752,-0.9757,-0.9762,-0.985,0,0,0,0,0,0,-0.95,-0.951,-0.9542,-0.9539,-0.9547,-0.9623,-0.9551,-0.9545,-0.956,-0.9552,-0.9554,-0.9552,-0.9531,-0.9591,-0.96,-0.9648,-0.9553,-0.9747,-0.9754,-0.976,-0.9843,-0.9858,-0.9871,0,0,0,0,0,-0.9497,-0.9566,-0.9544,-0.9552,-0.9586,-0.9626,-0.963,-0.9604,-0.9564,-0.9597,-0.9589,-0.9552,-0.9638,-0.9598,-0.9607,-0.9657,-0.9744,-0.9752,-0.976,-0.9837,-0.9855,-0.987,0,0,0,0,0,0,-0.9575,-0.9565,-0.9541,-0.9611,-0.962,-0.9614,-0.9654,-0.9624,-0.9645,-0.9637,-0.9603,-0.9605,-0.9669,-0.9669,-0.9624,-0.9742,-0.9684,-0.9695,-0.974,-0.9757,-0.9771,-0.977,-0.9557,0,0,0,0,0,-0.9601,-0.9634,-0.9623,-0.9686,-0.9692,-0.9673,-0.9689,-0.9668,-0.9676,-0.968,-0.9676,-0.9687,-0.9716,-0.9736,-0.9762,-0.9842,-0.9843,-0.9881,-0.9895,-0.9907,-0.9916,-0.996,-0.9978,-0.9789,-0.9789,-0.9789,0,0,-0.9654,-0.9652,-0.9675,-0.9702,-0.9706,-0.9743,-0.9676,-0.9717,-0.9743,-0.9686,-0.9742,-0.9739,-0.9749,-0.9819,-0.9849,-0.982,-0.9968,-0.9917,-0.9926,-0.9929,-0.997,-0.9988,-1.0004,-0.9795,-0.9794,-0.9793,0,0,-0.9768,-0.977,-0.9823,-0.983,-0.9838,-0.9824,-0.9838,-0.9836,-0.9833,-0.9888,-0.9846,-0.9878,-0.9929,-0.9938,-0.9949,-1.007,-1.0037,-1.0079,-1.0152,-1.0196,-1.021,-1.0224,-1.0268,-1.0285,-1.0088,-1.0089,-1.0089,0,-0.9833,-0.9885,-0.9855,-0.9899,-0.9913,-0.9863,-0.9917,-0.9925,-0.9942,-0.9953,-0.992,-0.9984,-0.9987,-1.0059,-1.0089,-1.0099,-1.0114,-1.0079,-1.0211,-1.0223,-1.0235,-1.0278,-1.0294,-1.0094,-1.0093,-1.0093,-1.0092,0,-0.9966,-1.0002,-1.0045,-1.0062,-1.0081,-1.013,-1.0108,-1.0131,-1.0109,-1.01,-1.0157,-1.0159,-1.0185,-1.0201,-1.0179,-1.0271,-1.0253,-1.0216,-1.0158,-1.0259,-1.0298,-1.0314,-1.0101,-1.0099,-1.0098,-1.0097,0,0,-1.013,-1.0131,-1.0147,-1.0155,-1.0161,-1.0189,-1.0237,-1.0263,-1.0284,-1.0297,-1.0338,-1.0383,-1.0349,-1.0362,-1.0341,-1.0379,-1.0477,-1.0338,-1.0337,-1.0365,-1.0581,-1.061,-1.0629,-1.0455,-1.0458,-1.0461,-1.0581,0,-1.0244,-1.0325,-1.03,-1.0382,-1.0417,-1.037,-1.0412,-1.0421,-1.0414,-1.0443,-1.0435,-1.0469,-1.0421,-1.0429,-1.0464,-1.0458,-1.052,-1.0449,-1.0494,-1.0496,-1.0495,-1.0649,-1.068,-1.0793,-1.0596,-1.0598,-1.06,0,-1.0388,-1.0407,-1.0493,-1.0495,-1.0508,-1.0546,-1.0569,-1.0597,-1.0607,-1.0599,-1.0615,-1.0587,-1.0635,-1.0576,-1.0643,-1.0595,-1.0612,-1.0612,-1.0616,-1.062,-1.0555,-1.066,-1.0828,-1.0846,-1.0624,-1.0622,-1.062,0,-1.0502,-1.0549,-1.0607,-1.0615,-1.0618,-1.0646,-1.0649,-1.0655,-1.0673,-1.0693,-1.0705,-1.0731,-1.0745,-1.0767,-1.0747,-1.0705,-1.0818,-1.0757,-1.0815,-1.0815,-1.0841,-1.084,-1.1017,-1.085,-1.085,-1.0849,-1.0849,0,-1.0632,-1.0687,-1.0658,-1.0694,-1.0755,-1.0726,-1.0787,-1.0785,-1.0791,-1.0827,-1.0788,-1.0822,-1.0793,-1.0826,-1.081,-1.087,-1.0876,-1.0873,-1.0868,-1.0877,-1.0878,-1.0889,-1.0881,-1.0854,-1.0853,-1.0852,-1.0851,0,-1.077,-1.0752,-1.0813,-1.0811,-1.0812,-1.0857,-1.0856,-1.089,-1.088,-1.0926,-1.0935,-1.092,-1.0957,-1.0939,-1.0976,-1.0966,-1.1043,-1.1027,-1.104,-1.1037,-1.1096,-1.1091,-1.1287,-1.1312,-1.1128,-1.113,-1.1131,0,-1.0855,-1.0896,-1.0899,-1.092,-1.0925,-1.0959,-1.0978,-1.0951,-1.0972,-1.0987,-1.102,-1.1053,-1.1078,-1.1138,-1.1132,-1.1161,-1.1146,-1.1213,-1.1151,-1.1159,-1.115,-1.1148,-1.1153,-1.1226,-1.1228,-1.123,-1.1231,0,-1.1009,-1.0999,-1.1026,-1.1052,-1.1075,-1.1093,-1.1109,-1.1128,-1.1102,-1.1128,-1.1165,-1.1184,-1.1223,-1.1257,-1.1283,-1.1286,-1.1256,-1.1251,-1.1266,-1.1276,-1.1283,-1.1282,-1.1076,-1.1247,-1.1245,-1.1244,-1.1243,-1.1243,-1.1124,-1.1159,-1.1167,-1.12,-1.1209,-1.1225,-1.1257,-1.1252,-1.1281,-1.1311,-1.1294,-1.1337,-1.1348,-1.1379,-1.1387,-1.1422,-1.1395,-1.1417,-1.1423,-1.1429,-1.1438,-1.1276,-1.1426,-1.1426,-1.1425,-1.1425,-1.1425,0,-1.1277,-1.128,-1.1311,-1.1334,-1.136,-1.1328,-1.1344,-1.1368,-1.1407,-1.1419,-1.1445,-1.1488,-1.1521,-1.1518,-1.1548,-1.1577,-1.1564,-1.1586,-1.1584,-1.1586,-1.1459,-1.1443,-1.1596,-1.1596,-1.1596,-1.1596,-1.1596,-1.1596,-1.136,-1.1419,-1.141,-1.1473,-1.1476,-1.1518,-1.153,-1.1545,-1.1555,-1.1605,-1.1632,-1.163,-1.1636,-1.1667,-1.1697,-1.1695,-1.1709,-1.1737,-1.1731,-1.1612,-1.1595,-1.1579,-1.1564,-1.174,-1.174,-1.1855,-1.1856,-1.1857]},{"header":{"parameterUnit":"m.s-1","parameterCategory":1,"la1":30.2991,"la2":30.254,"lo1":-89.0895,"lo2":-89.0444,"dy":0.0017,"dx":0.0017,"nx":28,"ny":28,"refTime":"2024-10-12T09:00:00:Z","depth":0,"parameterNumber":3,"parameterNumberName":"V-component_of_WINDS"},"data":[0,0,0,0,0,0,0,0,0,0,0,0,0,0,0,0,0,0,0,0,0,0,0,0,0,0,0,0,0,0,0,0,0,0,0,0,0,0,0,0,0,0,0,0,0,0,0,0,0,0,0,0,0,0,0,0,0,0,0.0649,0.0649,0,0.0665,0.0665,0.0665,0.0693,0.0693,0.0694,0.0694,0.0709,0.0709,0.0709,0,0,0,0,0,0,0,0,0,0,0,0,0,0.064,0.064,0.0649,0.0649,0.0649,0.0665,0.0665,0.0665,0.0693,0.0693,0.0694,0.0694,0.0709,0.0709,0.0709,0,0,0,0,0,0,0,0,0,0,0,0,0,0.0649,0.064,0.0649,0.0665,0.0666,0.0665,0.0665,0.0665,0.0692,0.0693,0.0694,0.0695,0.071,0.0709,0.0709,0.0693,0,0,0.0709,0.0709,0,0,0,0,0,0,0,0,0.0648,0.0649,0.0662,0.0664,0.0665,0.0678,0.0668,0.0675,0.0692,0.0682,0.0694,0.0695,0.0698,0.0699,0.07,0.0694,0.0695,0.0709,0.0709,0.0709,0.0709,0,0,0,0,0,0,0,0.0647,0.0648,0.0655,0.0662,0.0664,0.067,0.0673,0.0669,0.0686,0.0683,0.0685,0.0687,0.0699,0.07,0.0701,0.0695,0.0709,0.0709,0.0709,0.0709,0.0674,0.0673,0,0,0,0,0,0,0.0645,0.0648,0.0655,0.0656,0.0659,0.067,0.0672,0.0673,0.0686,0.0689,0.0686,0.0688,0.07,0.0701,0.0702,0.0682,0.0709,0.0709,0.0709,0.0675,0.0674,0.0673,0,0,0,0,0,0,0.0644,0.0645,0.0654,0.0652,0.0654,0.0669,0.067,0.0673,0.0674,0.0688,0.0691,0.0685,0.0701,0.0702,0.0695,0.0683,0.0709,0.0709,0.0676,0.0675,0.0673,0.0643,0,0,0,0,0,0,0.0644,0.0645,0.0639,0.0652,0.0654,0.0648,0.0669,0.0673,0.0674,0.0677,0.0687,0.069,0.0701,0.0695,0.0695,0.0683,0.0709,0.0677,0.0675,0.0674,0.0645,0.0641,0.0638,0,0,0,0,0,0.0644,0.0631,0.0639,0.064,0.0648,0.0647,0.0648,0.0662,0.0673,0.0667,0.0676,0.0689,0.0685,0.0694,0.0694,0.0682,0.0678,0.0676,0.0674,0.0647,0.0642,0.0638,0,0,0,0,0,0,0.0617,0.0633,0.0642,0.0633,0.0638,0.0651,0.0645,0.0656,0.0658,0.0661,0.0678,0.068,0.067,0.0676,0.0686,0.0666,0.0683,0.0681,0.0663,0.0658,0.0654,0.0652,0.0709,0,0,0,0,0,0.0609,0.0608,0.0622,0.0613,0.0615,0.0629,0.0629,0.064,0.0646,0.0648,0.0657,0.0661,0.0661,0.066,0.0661,0.0647,0.0648,0.0639,0.0635,0.0632,0.0629,0.062,0.0615,0.0667,0.0667,0.0667,0,0,0.0595,0.0604,0.0602,0.0607,0.0613,0.061,0.0631,0.0628,0.0625,0.0648,0.0641,0.0647,0.0654,0.0643,0.0638,0.0647,0.0615,0.0629,0.0626,0.0626,0.0617,0.0613,0.0608,0.0665,0.0665,0.0666,0,0,0.0566,0.0574,0.0565,0.057,0.0578,0.0587,0.0585,0.0596,0.0601,0.0595,0.0611,0.0608,0.0608,0.0611,0.0612,0.0584,0.0595,0.0583,0.0562,0.0553,0.0549,0.0545,0.0533,0.0528,0.0581,0.0581,0.0581,0,0.0547,0.0544,0.056,0.0554,0.0556,0.0576,0.0567,0.0571,0.0578,0.0578,0.0588,0.0586,0.0592,0.0581,0.0574,0.0575,0.0572,0.0581,0.0548,0.0545,0.0542,0.053,0.0526,0.0579,0.058,0.058,0.058,0,0.0518,0.0516,0.0508,0.0514,0.0515,0.0508,0.0521,0.052,0.053,0.0538,0.053,0.0538,0.054,0.0538,0.0548,0.0528,0.0533,0.0545,0.0562,0.0535,0.0524,0.052,0.0577,0.0578,0.0578,0.0579,0,0,0.0473,0.0487,0.0484,0.0486,0.0495,0.0493,0.0486,0.0488,0.0485,0.0489,0.0483,0.0481,0.0492,0.0494,0.0505,0.0497,0.0471,0.051,0.051,0.0501,0.0446,0.0435,0.043,0.0479,0.0478,0.0478,0.0445,0,0.0445,0.0434,0.0447,0.0433,0.043,0.0449,0.0442,0.0447,0.0454,0.0452,0.046,0.0457,0.0473,0.0474,0.0468,0.0475,0.046,0.0478,0.0472,0.0471,0.0467,0.0424,0.0413,0.0381,0.0441,0.044,0.044,0,0.0411,0.0412,0.0397,0.0406,0.0405,0.0399,0.04,0.0398,0.0403,0.0409,0.041,0.0423,0.0415,0.0433,0.0422,0.0434,0.0433,0.0436,0.0435,0.0433,0.0452,0.0419,0.0372,0.0366,0.0434,0.0434,0.0435,0,0.0376,0.0375,0.0365,0.0367,0.0377,0.0372,0.0376,0.0382,0.0381,0.0382,0.0381,0.0382,0.0381,0.0381,0.0393,0.0405,0.038,0.0399,0.0382,0.0382,0.0375,0.0375,0.0324,0.0377,0.0377,0.0378,0.0378,0,0.0342,0.0331,0.0349,0.0343,0.0332,0.0347,0.0335,0.0341,0.0346,0.034,0.0357,0.0352,0.0369,0.0364,0.0374,0.0362,0.0362,0.0366,0.0368,0.0363,0.0362,0.036,0.0362,0.0376,0.0377,0.0377,0.0377,0,0.03,0.0312,0.0303,0.0313,0.0315,0.0306,0.0314,0.0308,0.0317,0.0309,0.0309,0.0321,0.0317,0.0329,0.0327,0.0333,0.0315,0.0322,0.0313,0.0315,0.0297,0.0297,0.0241,0.0234,0.0294,0.0294,0.0293,0,0.0277,0.0269,0.0278,0.0276,0.0278,0.0275,0.0273,0.0288,0.0286,0.029,0.0284,0.0281,0.0279,0.0272,0.028,0.0278,0.0284,0.0264,0.0283,0.0278,0.028,0.028,0.0278,0.026,0.0259,0.0258,0.0258,0,0.0233,0.0239,0.0237,0.0236,0.0234,0.0235,0.0236,0.0233,0.0249,0.0246,0.0241,0.024,0.0237,0.0233,0.0233,0.0237,0.0249,0.0252,0.0248,0.0241,0.0235,0.0236,0.03,0.0253,0.0253,0.0254,0.0254,0.0254,0.0198,0.0191,0.0196,0.0193,0.0195,0.0196,0.019,0.0197,0.0194,0.0192,0.0202,0.0195,0.0198,0.0199,0.0201,0.0195,0.0204,0.0199,0.0197,0.0194,0.019,0.0238,0.0196,0.0196,0.0196,0.0196,0.0196,0,0.0153,0.0157,0.0154,0.0154,0.0151,0.0164,0.0166,0.0162,0.0156,0.0158,0.0156,0.015,0.0146,0.0154,0.0151,0.0145,0.015,0.0143,0.0143,0.0143,0.0184,0.0187,0.0139,0.0139,0.0139,0.0139,0.0139,0.0139,0.0129,0.0117,0.0123,0.0112,0.0116,0.0109,0.0109,0.0109,0.0111,0.0103,0.01,0.0105,0.0109,0.0107,0.0103,0.0105,0.0102,0.0093,0.0097,0.0135,0.014,0.0146,0.0148,0.0093,0.0093,0.0056,0.0056,0.0055]}]]